Time,TemperatureF,DewpointF,PressureIn,WindDirection,WindDirectionDegrees,WindSpeedMPH,WindSpeedGustMPH,Humidity,HourlyPrecipIn,Conditions,Clouds,dailyrainin,SoftwareType,DateUTC
2013-08-10 00:00:00,55.5,48.1,30.07,WNW,291,0.0,15.4,76,0.00,,,0.11,VWS V14.01,2013-08-10 04:00:00,
2013-08-10 00:01:00,55.5,48.1,30.07,NW,315,2.8,15.4,76,0.00,,,0.11,VWS V14.01,2013-08-10 04:01:00,
2013-08-10 00:06:00,55.6,48.2,30.07,NNE,30,4.2,11.2,76,0.00,,,0.00,VWS V14.01,2013-08-10 04:06:00,
2013-08-10 00:11:00,55.6,48.2,30.07,West,262,1.4,11.2,76,0.00,,,0.00,VWS V14.01,2013-08-10 04:11:00,
2013-08-10 00:15:00,55.5,48.1,30.07,WNW,300,7.0,11.2,76,0.00,,,0.00,VWS V14.01,2013-08-10 04:15:00,
2013-08-10 00:20:00,55.5,48.4,30.07,NNW,333,1.4,11.2,77,0.00,,,0.00,VWS V14.01,2013-08-10 04:20:00,
2013-08-10 00:25:00,55.5,48.4,30.07,West,278,9.8,12.6,77,0.00,,,0.00,VWS V14.01,2013-08-10 04:25:00,
2013-08-10 00:30:00,55.6,48.5,30.07,NNW,334,2.8,12.6,77,0.00,,,0.00,VWS V14.01,2013-08-10 04:30:00,
2013-08-10 00:35:00,55.4,48.3,30.07,NW,320,1.4,12.6,77,0.00,,,0.00,VWS V14.01,2013-08-10 04:35:00,
2013-08-10 00:40:00,55.4,48.3,30.07,WNW,297,2.8,12.6,77,0.00,,,0.00,VWS V14.01,2013-08-10 04:40:00,
2013-08-10 00:45:00,55.4,48.3,30.07,NNW,330,5.6,12.6,77,0.00,,,0.00,VWS V14.01,2013-08-10 04:45:00,
2013-08-10 00:50:00,55.4,48.3,30.07,NNE,29,1.4,12.6,77,0.00,,,0.00,VWS V14.01,2013-08-10 04:50:00,
2013-08-10 00:55:00,55.3,48.2,30.07,NW,314,4.2,12.6,77,0.00,,,0.00,VWS V14.01,2013-08-10 04:55:00,
2013-08-10 01:00:00,55.2,48.5,30.07,WNW,288,5.6,12.6,78,0.00,,,0.00,VWS V14.01,2013-08-10 05:00:00,
2013-08-10 01:05:00,55.1,48.4,30.07,NW,305,5.6,12.6,78,0.00,,,0.00,VWS V14.01,2013-08-10 05:05:00,
2013-08-10 01:10:00,55.0,48.3,30.07,NW,305,5.6,12.6,78,0.00,,,0.00,VWS V14.01,2013-08-10 05:10:00,
2013-08-10 01:15:00,55.2,48.5,30.07,NW,323,2.8,12.6,78,0.00,,,0.00,VWS V14.01,2013-08-10 05:15:00,
2013-08-10 01:20:00,55.2,48.1,30.07,WNW,283,1.4,12.6,77,0.00,,,0.00,VWS V14.01,2013-08-10 05:20:00,
2013-08-10 01:25:00,55.0,48.3,30.07,NW,311,7.0,12.6,78,0.00,,,0.00,VWS V14.01,2013-08-10 05:25:00,
2013-08-10 01:30:00,55.1,48.4,30.07,West,281,1.4,12.6,78,0.00,,,0.00,VWS V14.01,2013-08-10 05:30:00,
2013-08-10 01:35:00,55.1,48.0,30.07,West,278,2.8,12.6,77,0.00,,,0.00,VWS V14.01,2013-08-10 05:35:00,
2013-08-10 01:40:00,55.3,48.2,30.07,WNW,295,2.8,12.6,77,0.00,,,0.00,VWS V14.01,2013-08-10 05:40:00,
2013-08-10 01:45:00,55.2,48.1,30.07,West,264,1.4,12.6,77,0.00,,,0.00,VWS V14.01,2013-08-10 05:45:00,
2013-08-10 01:50:00,55.0,48.3,30.08,WNW,288,2.8,12.6,78,0.00,,,0.00,VWS V14.01,2013-08-10 05:50:00,
2013-08-10 01:55:00,55.3,48.6,30.08,WSW,256,0.0,12.6,78,0.00,,,0.00,VWS V14.01,2013-08-10 05:55:00,
2013-08-10 02:00:00,55.2,48.5,30.08,West,271,1.4,12.6,78,0.00,,,0.00,VWS V14.01,2013-08-10 06:00:00,
2013-08-10 02:05:00,55.2,48.5,30.08,WSW,252,2.8,4.2,78,0.00,,,0.00,VWS V14.01,2013-08-10 06:05:00,
2013-08-10 02:10:00,55.1,48.4,30.08,WNW,283,2.8,4.2,78,0.00,,,0.00,VWS V14.01,2013-08-10 06:10:00,
2013-08-10 02:15:00,55.2,48.5,30.08,WNW,288,1.4,5.6,78,0.00,,,0.00,VWS V14.01,2013-08-10 06:15:00,
2013-08-10 02:20:00,54.5,48.5,30.08,WSW,242,1.4,5.6,80,0.00,,,0.00,VWS V14.01,2013-08-10 06:20:00,
2013-08-10 02:25:00,53.6,47.9,30.08,WSW,252,2.8,5.6,81,0.00,,,0.00,VWS V14.01,2013-08-10 06:25:00,
2013-08-10 02:30:00,53.6,47.9,30.08,West,259,2.8,5.6,81,0.00,,,0.00,VWS V14.01,2013-08-10 06:30:00,
2013-08-10 02:35:00,53.8,48.1,30.08,West,269,4.2,5.6,81,0.00,,,0.00,VWS V14.01,2013-08-10 06:35:00,
2013-08-10 02:40:00,54.0,48.3,30.08,WNW,286,1.4,5.6,81,0.00,,,0.00,VWS V14.01,2013-08-10 06:40:00,
2013-08-10 02:45:00,54.2,48.8,30.08,WNW,290,1.4,5.6,82,0.00,,,0.00,VWS V14.01,2013-08-10 06:45:00,
2013-08-10 02:50:00,54.1,48.7,30.08,WNW,295,2.8,5.6,82,0.00,,,0.00,VWS V14.01,2013-08-10 06:50:00,
2013-08-10 02:55:00,54.2,48.8,30.08,West,264,1.4,5.6,82,0.00,,,0.00,VWS V14.01,2013-08-10 06:55:00,
2013-08-10 03:00:00,54.1,49.1,30.08,NW,307,2.8,5.6,83,0.00,,,0.00,VWS V14.01,2013-08-10 07:00:00,
2013-08-10 03:05:00,54.4,49.3,30.08,West,260,0.0,5.6,83,0.00,,,0.00,VWS V14.01,2013-08-10 07:05:00,
2013-08-10 03:10:00,54.3,49.3,30.08,WNW,290,1.4,5.6,83,0.00,,,0.00,VWS V14.01,2013-08-10 07:10:00,
2013-08-10 03:15:00,54.3,49.3,30.08,WSW,239,1.4,5.6,83,0.00,,,0.00,VWS V14.01,2013-08-10 07:15:00,
2013-08-10 03:20:00,54.5,49.1,30.09,WSW,245,1.4,5.6,82,0.00,,,0.00,VWS V14.01,2013-08-10 07:20:00,
2013-08-10 03:25:00,54.3,48.9,30.09,West,278,1.4,5.6,82,0.00,,,0.00,VWS V14.01,2013-08-10 07:25:00,
2013-08-10 03:30:00,54.4,49.0,30.09,West,262,1.4,5.6,82,0.00,,,0.00,VWS V14.01,2013-08-10 07:30:00,
2013-08-10 03:35:00,54.5,49.5,30.08,WSW,255,2.8,5.6,83,0.00,,,0.00,VWS V14.01,2013-08-10 07:35:00,
2013-08-10 03:40:00,54.2,49.2,30.08,West,269,1.4,5.6,83,0.00,,,0.00,VWS V14.01,2013-08-10 07:40:00,
2013-08-10 03:45:00,53.9,48.5,30.09,WSW,242,1.4,5.6,82,0.00,,,0.00,VWS V14.01,2013-08-10 07:45:00,
2013-08-10 03:50:00,52.9,48.5,30.09,WSW,257,1.4,5.6,85,0.00,,,0.00,VWS V14.01,2013-08-10 07:50:00,
2013-08-10 03:55:00,53.0,48.6,30.09,WSW,245,2.8,5.6,85,0.00,,,0.00,VWS V14.01,2013-08-10 07:55:00,
2013-08-10 04:00:00,53.1,48.7,30.09,WSW,257,1.4,5.6,85,0.00,,,0.00,VWS V14.01,2013-08-10 08:00:00,
2013-08-10 04:05:00,53.2,48.8,30.09,West,260,4.2,5.6,85,0.00,,,0.00,VWS V14.01,2013-08-10 08:05:00,
2013-08-10 04:10:00,53.7,49.0,30.09,WNW,283,2.8,5.6,84,0.00,,,0.00,VWS V14.01,2013-08-10 08:10:00,
2013-08-10 04:15:00,53.9,49.2,30.09,WNW,285,2.8,7.0,84,0.00,,,0.00,VWS V14.01,2013-08-10 08:15:00,
2013-08-10 04:20:00,54.2,49.5,30.09,WSW,245,2.8,7.0,84,0.00,,,0.00,VWS V14.01,2013-08-10 08:20:00,
2013-08-10 04:25:00,54.2,49.5,30.10,West,269,1.4,7.0,84,0.00,,,0.00,VWS V14.01,2013-08-10 08:25:00,
2013-08-10 04:30:00,54.0,49.6,30.10,West,278,1.4,7.0,85,0.00,,,0.00,VWS V14.01,2013-08-10 08:30:00,
2013-08-10 04:35:00,53.9,49.5,30.10,WSW,257,2.8,7.0,85,0.00,,,0.00,VWS V14.01,2013-08-10 08:35:00,
2013-08-10 04:40:00,53.9,49.5,30.10,West,281,5.6,8.4,85,0.00,,,0.00,VWS V14.01,2013-08-10 08:40:00,
2013-08-10 04:45:00,54.0,49.6,30.10,West,260,4.2,8.4,85,0.00,,,0.00,VWS V14.01,2013-08-10 08:45:00,
2013-08-10 04:50:00,54.2,49.5,30.10,WNW,293,4.2,8.4,84,0.00,,,0.00,VWS V14.01,2013-08-10 08:50:00,
2013-08-10 04:55:00,54.3,49.6,30.10,WSW,248,1.4,8.4,84,0.00,,,0.00,VWS V14.01,2013-08-10 08:55:00,
2013-08-10 05:00:00,54.4,49.7,30.10,WSW,256,1.4,8.4,84,0.00,,,0.00,VWS V14.01,2013-08-10 09:00:00,
2013-08-10 05:05:00,54.3,49.3,30.10,WSW,248,1.4,8.4,83,0.00,,,0.00,VWS V14.01,2013-08-10 09:05:00,
2013-08-10 05:10:00,54.1,49.1,30.10,West,264,2.8,8.4,83,0.00,,,0.00,VWS V14.01,2013-08-10 09:10:00,
2013-08-10 05:14:00,54.1,49.1,30.10,West,280,1.4,8.4,83,0.00,,,0.00,VWS V14.01,2013-08-10 09:14:00,
2013-08-10 05:16:00,54.0,48.6,30.10,SW,235,0.0,8.4,82,0.00,,,0.00,VWS V14.01,2013-08-10 09:16:00,
2013-08-10 05:21:00,54.0,48.3,30.10,WSW,252,1.4,8.4,81,0.00,,,0.00,VWS V14.01,2013-08-10 09:21:00,
2013-08-10 05:26:00,53.9,47.9,30.10,WSW,255,0.0,8.4,80,0.00,,,0.00,VWS V14.01,2013-08-10 09:26:00,
2013-08-10 05:31:00,54.0,47.6,30.10,WSW,255,5.6,8.4,79,0.00,,,0.00,VWS V14.01,2013-08-10 09:31:00,
2013-08-10 05:36:00,54.1,47.7,30.10,East,96,1.4,8.4,79,0.00,,,0.00,VWS V14.01,2013-08-10 09:36:00,
2013-08-10 05:41:00,54.4,49.7,30.11,East,94,5.6,8.4,84,0.00,,,0.00,VWS V14.01,2013-08-10 09:41:00,
2013-08-10 05:46:00,54.5,49.5,30.11,WSW,251,2.8,8.4,83,0.00,,,0.00,VWS V14.01,2013-08-10 09:46:00,
2013-08-10 05:51:00,54.3,49.3,30.11,SW,232,0.0,8.4,83,0.00,,,0.00,VWS V14.01,2013-08-10 09:51:00,
2013-08-10 05:56:00,54.5,48.8,30.11,North,357,1.4,8.4,81,0.00,,,0.00,VWS V14.01,2013-08-10 09:56:00,
2013-08-10 06:00:00,54.6,48.9,30.11,NE,50,0.0,8.4,81,0.00,,,0.00,VWS V14.01,2013-08-10 10:00:00,
2013-08-10 06:01:00,54.5,48.5,30.11,NE,49,0.0,8.4,80,0.00,,,0.00,VWS V14.01,2013-08-10 10:01:00,
2013-08-10 06:06:00,54.5,48.8,30.11,SE,137,0.0,1.4,81,0.00,,,0.00,VWS V14.01,2013-08-10 10:06:00,
2013-08-10 06:11:00,54.2,48.8,30.11,WSW,253,1.4,2.8,82,0.00,,,0.00,VWS V14.01,2013-08-10 10:11:00,
2013-08-10 06:16:00,54.1,48.7,30.11,WNW,295,4.2,5.6,82,0.00,,,0.00,VWS V14.01,2013-08-10 10:16:00,
2013-08-10 06:21:00,54.1,48.7,30.11,NW,314,0.0,5.6,82,0.00,,,0.00,VWS V14.01,2013-08-10 10:21:00,
2013-08-10 06:26:00,53.9,48.5,30.11,NW,315,0.0,5.6,82,0.00,,,0.00,VWS V14.01,2013-08-10 10:26:00,
2013-08-10 06:31:00,53.8,48.4,30.12,NW,315,0.0,5.6,82,0.00,,,0.00,VWS V14.01,2013-08-10 10:31:00,
2013-08-10 06:36:00,53.4,48.4,30.12,NW,314,0.0,5.6,83,0.00,,,0.00,VWS V14.01,2013-08-10 10:36:00,
2013-08-10 06:41:00,53.0,48.3,30.12,NW,314,0.0,5.6,84,0.00,,,0.00,VWS V14.01,2013-08-10 10:41:00,
2013-08-10 06:46:00,52.6,48.5,30.12,WSW,240,1.4,5.6,86,0.00,,,0.00,VWS V14.01,2013-08-10 10:46:00,
2013-08-10 06:51:00,52.0,48.0,30.12,SW,226,1.4,5.6,86,0.00,,,0.00,VWS V14.01,2013-08-10 10:51:00,
2013-08-10 06:56:00,51.7,48.0,30.12,SW,232,1.4,5.6,87,0.00,,,0.00,VWS V14.01,2013-08-10 10:56:00,
2013-08-10 07:00:00,54.6,48.9,30.11,NE,50,0.0,8.4,81,0.00,,,0.00,VWS V14.01,2013-08-10 11:00:00,
2013-08-10 07:01:00,51.7,48.3,30.13,SW,232,0.0,5.6,88,0.00,,,0.00,VWS V14.01,2013-08-10 11:01:00,
2013-08-10 07:06:00,51.8,48.4,30.13,SSW,212,1.4,5.6,88,0.00,,,0.00,VWS V14.01,2013-08-10 11:06:00,
2013-08-10 07:11:00,52.1,48.7,30.13,NW,305,1.4,5.6,88,0.00,,,0.00,VWS V14.01,2013-08-10 11:11:00,
2013-08-10 07:16:00,52.5,48.8,30.13,West,281,1.4,5.6,87,0.00,,,0.00,VWS V14.01,2013-08-10 11:16:00,
2013-08-10 07:21:00,52.9,49.1,30.13,WNW,301,2.8,5.6,87,0.00,,,0.00,VWS V14.01,2013-08-10 11:21:00,
2013-08-10 07:26:00,53.4,49.6,30.13,West,262,1.4,5.6,87,0.00,,,0.00,VWS V14.01,2013-08-10 11:26:00,
2013-08-10 07:31:00,54.1,50.0,30.13,West,267,2.8,7.0,86,0.00,,,0.00,VWS V14.01,2013-08-10 11:31:00,
2013-08-10 07:36:00,54.8,50.7,30.13,West,259,2.8,7.0,86,0.00,,,0.00,VWS V14.01,2013-08-10 11:36:00,
2013-08-10 07:41:00,55.5,51.4,30.13,NW,322,2.8,9.8,86,0.00,,,0.00,VWS V14.01,2013-08-10 11:41:00,
2013-08-10 07:46:00,56.2,51.8,30.14,WSW,245,2.8,9.8,85,0.00,,,0.00,VWS V14.01,2013-08-10 11:46:00,
2013-08-10 07:51:00,56.7,51.9,30.14,WNW,293,0.0,9.8,84,0.00,,,0.00,VWS V14.01,2013-08-10 11:51:00,
2013-08-10 07:56:00,57.3,52.5,30.14,WNW,293,4.2,9.8,84,0.00,,,0.00,VWS V14.01,2013-08-10 11:56:00,
2013-08-10 08:00:00,57.9,52.8,30.13,NW,314,4.2,9.8,83,0.00,,,0.00,VWS V14.01,2013-08-10 12:00:00,
2013-08-10 08:01:00,57.8,52.7,30.14,WNW,300,1.4,9.8,83,0.00,,,0.00,VWS V14.01,2013-08-10 12:01:00,
2013-08-10 08:06:00,58.3,53.2,30.14,WNW,294,1.4,11.2,83,0.00,,,0.00,VWS V14.01,2013-08-10 12:06:00,
2013-08-10 08:11:00,58.6,53.1,30.14,NW,322,2.8,11.2,82,0.00,,,0.00,VWS V14.01,2013-08-10 12:11:00,
2013-08-10 08:16:00,58.8,53.0,30.14,WNW,286,5.6,12.6,81,0.00,,,0.00,VWS V14.01,2013-08-10 12:16:00,
2013-08-10 08:21:00,59.2,53.4,30.13,NNW,348,7.0,12.6,81,0.00,,,0.00,VWS V14.01,2013-08-10 12:21:00,
2013-08-10 08:26:00,59.7,53.5,30.14,West,275,0.0,12.6,80,0.00,,,0.00,VWS V14.01,2013-08-10 12:26:00,
2013-08-10 08:31:00,60.2,53.7,30.14,WNW,290,5.6,12.6,79,0.00,,,0.00,VWS V14.01,2013-08-10 12:31:00,
2013-08-10 08:36:00,60.3,53.8,30.14,WNW,293,4.2,12.6,79,0.00,,,0.00,VWS V14.01,2013-08-10 12:36:00,
2013-08-10 08:41:00,60.4,53.5,30.14,WNW,288,2.8,12.6,78,0.00,,,0.00,VWS V14.01,2013-08-10 12:41:00,
2013-08-10 08:46:00,60.6,53.7,30.14,NW,319,2.8,14.0,78,0.00,,,0.00,VWS V14.01,2013-08-10 12:46:00,
2013-08-10 08:50:00,60.7,53.8,30.14,SSW,208,1.4,14.0,78,0.00,,,0.00,VWS V14.01,2013-08-10 12:50:00,
2013-08-10 08:55:00,60.9,54.0,30.14,NNW,340,7.0,21.0,78,0.00,,,0.00,VWS V14.01,2013-08-10 12:55:00,
2013-08-10 09:00:00,60.9,54.0,30.14,North,11,8.4,21.0,78,0.00,,,0.00,VWS V14.01,2013-08-10 13:00:00,
2013-08-10 09:05:00,60.9,54.0,30.14,West,271,1.4,21.0,78,0.00,,,0.00,VWS V14.01,2013-08-10 13:05:00,
2013-08-10 09:10:00,61.3,54.4,30.14,WNW,297,4.2,21.0,78,0.00,,,0.00,VWS V14.01,2013-08-10 13:10:00,
2013-08-10 09:15:00,61.9,54.3,30.14,NNW,337,4.2,21.0,76,0.00,,,0.00,VWS V14.01,2013-08-10 13:15:00,
2013-08-10 09:20:00,62.0,54.4,30.14,North,1,5.6,21.0,76,0.00,,,0.00,VWS V14.01,2013-08-10 13:20:00,
2013-08-10 09:25:00,62.2,53.8,30.14,NNE,22,4.2,21.0,74,0.00,,,0.00,VWS V14.01,2013-08-10 13:25:00,
2013-08-10 09:30:00,62.0,54.0,30.14,West,267,2.8,21.0,75,0.00,,,0.00,VWS V14.01,2013-08-10 13:30:00,
2013-08-10 09:35:00,62.3,53.9,30.14,NNW,330,5.6,21.0,74,0.00,,,0.00,VWS V14.01,2013-08-10 13:35:00,
2013-08-10 09:40:00,62.4,54.4,30.14,NW,321,4.2,21.0,75,0.00,,,0.00,VWS V14.01,2013-08-10 13:40:00,
2013-08-10 09:45:00,62.9,54.5,30.14,West,262,2.8,21.0,74,0.00,,,0.00,VWS V14.01,2013-08-10 13:45:00,
2013-08-10 09:50:00,63.6,54.4,30.14,NW,314,7.0,21.0,72,0.00,,,0.00,VWS V14.01,2013-08-10 13:50:00,
2013-08-10 09:55:00,63.6,54.8,30.14,NW,307,5.6,21.0,73,0.00,,,0.00,VWS V14.01,2013-08-10 13:55:00,
2013-08-10 10:00:00,63.7,54.1,30.14,NW,305,7.0,21.0,71,0.00,,,0.00,VWS V14.01,2013-08-10 14:00:00,
2013-08-10 10:05:00,63.4,53.8,30.14,NW,316,5.6,15.4,71,0.00,,,0.00,VWS V14.01,2013-08-10 14:05:00,
2013-08-10 10:10:00,63.9,53.9,30.14,North,8,1.4,15.4,70,0.00,,,0.00,VWS V14.01,2013-08-10 14:10:00,
2013-08-10 10:15:00,64.4,53.6,30.15,NNW,327,4.2,15.4,68,0.00,,,0.00,VWS V14.01,2013-08-10 14:15:00,
2013-08-10 10:20:00,64.5,54.1,30.14,NNW,348,1.4,15.4,69,0.00,,,0.00,VWS V14.01,2013-08-10 14:20:00,
2013-08-10 10:25:00,65.2,54.0,30.15,West,267,1.4,15.4,67,0.00,,,0.00,VWS V14.01,2013-08-10 14:25:00,
2013-08-10 10:30:00,65.2,54.0,30.15,North,6,8.4,15.4,67,0.00,,,0.00,VWS V14.01,2013-08-10 14:30:00,
2013-08-10 10:35:00,64.6,53.4,30.15,NNW,332,11.2,16.8,67,0.00,,,0.00,VWS V14.01,2013-08-10 14:35:00,
2013-08-10 10:40:00,65.4,54.2,30.15,SW,235,8.4,16.8,67,0.00,,,0.00,VWS V14.01,2013-08-10 14:40:00,
2013-08-10 10:45:00,65.3,54.1,30.15,West,267,1.4,16.8,67,0.00,,,0.00,VWS V14.01,2013-08-10 14:45:00,
2013-08-10 10:50:00,65.6,54.0,30.15,North,4,4.2,16.8,66,0.00,,,0.00,VWS V14.01,2013-08-10 14:50:00,
2013-08-10 10:55:00,65.4,52.9,30.15,West,260,7.0,19.6,64,0.00,,,0.00,VWS V14.01,2013-08-10 14:55:00,
2013-08-10 11:00:00,65.1,53.5,30.16,NW,314,9.8,19.6,66,0.00,,,0.00,VWS V14.01,2013-08-10 15:00:00,
2013-08-10 11:05:00,65.3,54.1,30.15,NNW,345,5.6,19.6,67,0.00,,,0.00,VWS V14.01,2013-08-10 15:05:00,
2013-08-10 11:10:00,65.0,53.8,30.15,West,274,5.6,19.6,67,0.00,,,0.00,VWS V14.01,2013-08-10 15:10:00,
2013-08-10 11:15:00,65.4,54.2,30.15,NW,309,4.2,19.6,67,0.00,,,0.00,VWS V14.01,2013-08-10 15:15:00,
2013-08-10 11:20:00,65.8,55.0,30.16,SW,231,2.8,19.6,68,0.00,,,0.00,VWS V14.01,2013-08-10 15:20:00,
2013-08-10 11:25:00,66.0,55.5,30.15,NNW,348,7.0,19.6,69,0.00,,,0.00,VWS V14.01,2013-08-10 15:25:00,
2013-08-10 11:30:00,65.6,55.6,30.16,NNE,33,2.8,19.6,70,0.00,,,0.00,VWS V14.01,2013-08-10 15:30:00,
2013-08-10 11:35:00,65.2,55.6,30.16,NW,307,4.2,19.6,71,0.00,,,0.00,VWS V14.01,2013-08-10 15:35:00,
2013-08-10 11:40:00,65.5,56.2,30.15,NNE,12,5.6,19.6,72,0.00,,,0.00,VWS V14.01,2013-08-10 15:40:00,
2013-08-10 11:45:00,65.8,56.2,30.16,NNW,340,4.2,19.6,71,0.00,,,0.00,VWS V14.01,2013-08-10 15:45:00,
2013-08-10 11:50:00,65.5,55.9,30.15,NNE,15,7.0,19.6,71,0.00,,,0.00,VWS V14.01,2013-08-10 15:50:00,
2013-08-10 11:55:00,65.3,56.0,30.16,NNW,340,5.6,19.6,72,0.00,,,0.00,VWS V14.01,2013-08-10 15:55:00,
2013-08-10 12:00:00,65.2,56.0,30.16,North,4,7.0,19.6,72,0.00,,,0.00,VWS V14.01,2013-08-10 16:00:00,
2013-08-10 12:05:00,65.6,56.0,30.15,SW,215,0.0,9.8,71,0.00,,,0.00,VWS V14.01,2013-08-10 16:05:00,
2013-08-10 12:10:00,65.8,56.2,30.16,NNE,33,2.8,9.8,71,0.00,,,0.00,VWS V14.01,2013-08-10 16:10:00,
2013-08-10 12:15:00,66.3,56.6,30.16,ENE,61,0.0,9.8,71,0.00,,,0.00,VWS V14.01,2013-08-10 16:15:00,
2013-08-10 12:20:00,66.0,56.7,30.16,NNE,19,2.8,11.2,72,0.00,,,0.00,VWS V14.01,2013-08-10 16:20:00,
2013-08-10 12:25:00,66.1,56.0,30.16,North,352,4.2,11.2,70,0.00,,,0.00,VWS V14.01,2013-08-10 16:25:00,
2013-08-10 12:30:00,66.5,56.4,30.16,NNE,27,2.8,11.2,70,0.00,,,0.00,VWS V14.01,2013-08-10 16:30:00,
2013-08-10 12:35:00,67.1,57.0,30.16,NNE,26,2.8,11.2,70,0.00,,,0.00,VWS V14.01,2013-08-10 16:35:00,
2013-08-10 12:40:00,67.2,57.1,30.15,SE,135,0.0,11.2,70,0.00,,,0.00,VWS V14.01,2013-08-10 16:40:00,
2013-08-10 12:45:00,67.8,56.5,30.15,NE,41,4.2,11.2,67,0.00,,,0.00,VWS V14.01,2013-08-10 16:45:00,
2013-08-10 12:50:00,67.5,56.6,30.15,South,172,0.0,11.2,68,0.00,,,0.00,VWS V14.01,2013-08-10 16:50:00,
2013-08-10 12:55:00,67.9,57.0,30.15,North,357,1.4,11.2,68,0.00,,,0.00,VWS V14.01,2013-08-10 16:55:00,
2013-08-10 13:00:00,68.1,57.2,30.15,NNE,33,0.0,11.2,68,0.00,,,0.00,VWS V14.01,2013-08-10 17:00:00,
2013-08-10 13:05:00,67.6,56.3,30.15,NNW,339,4.2,11.2,67,0.00,,,0.00,VWS V14.01,2013-08-10 17:05:00,
2013-08-10 13:10:00,67.1,56.6,30.16,NNW,330,7.0,11.2,69,0.00,,,0.00,VWS V14.01,2013-08-10 17:10:00,
2013-08-10 13:15:00,66.6,56.5,30.16,NNE,19,4.2,11.2,70,0.00,,,0.00,VWS V14.01,2013-08-10 17:15:00,
2013-08-10 13:20:00,66.6,56.5,30.16,NNW,348,9.8,11.2,70,0.00,,,0.00,VWS V14.01,2013-08-10 17:20:00,
2013-08-10 13:25:00,66.6,56.1,30.16,North,6,5.6,12.6,69,0.00,,,0.00,VWS V14.01,2013-08-10 17:25:00,
2013-08-10 13:30:00,66.6,56.9,30.16,North,6,11.2,14.0,71,0.00,,,0.00,VWS V14.01,2013-08-10 17:30:00,
2013-08-10 13:35:00,66.6,57.3,30.16,NNW,341,8.4,14.0,72,0.00,,,0.00,VWS V14.01,2013-08-10 17:35:00,
2013-08-10 13:40:00,66.5,57.2,30.16,North,6,11.2,14.0,72,0.00,,,0.00,VWS V14.01,2013-08-10 17:40:00,
2013-08-10 13:45:00,66.3,58.2,30.16,North,8,9.8,14.0,75,0.00,,,0.00,VWS V14.01,2013-08-10 17:45:00,
2013-08-10 13:50:00,66.3,57.8,30.16,North,349,7.0,14.0,74,0.00,,,0.00,VWS V14.01,2013-08-10 17:50:00,
2013-08-10 13:55:00,66.5,58.3,30.16,ENE,65,4.2,14.0,75,0.00,,,0.00,VWS V14.01,2013-08-10 17:55:00,
2013-08-10 14:00:00,66.3,58.5,30.16,NNE,20,5.6,14.0,76,0.00,,,0.00,VWS V14.01,2013-08-10 18:00:00,
2013-08-10 14:05:00,66.2,58.4,30.16,NNW,338,7.0,11.2,76,0.00,,,0.00,VWS V14.01,2013-08-10 18:05:00,
2013-08-10 14:10:00,66.3,58.2,30.16,North,353,7.0,12.6,75,0.00,,,0.00,VWS V14.01,2013-08-10 18:10:00,
2013-08-10 14:15:00,66.9,58.7,30.16,North,11,14.0,15.4,75,0.00,,,0.00,VWS V14.01,2013-08-10 18:15:00,
2013-08-10 14:20:00,67.0,58.5,30.16,NNW,336,7.0,15.4,74,0.00,,,0.00,VWS V14.01,2013-08-10 18:20:00,
2013-08-10 14:25:00,66.9,56.8,30.16,North,357,9.8,16.8,70,0.00,,,0.00,VWS V14.01,2013-08-10 18:25:00,
2013-08-10 14:30:00,66.8,57.1,30.16,NNE,23,12.6,16.8,71,0.00,,,0.00,VWS V14.01,2013-08-10 18:30:00,
2013-08-10 14:35:00,66.6,57.3,30.16,North,354,9.8,16.8,72,0.00,,,0.00,VWS V14.01,2013-08-10 18:35:00,
2013-08-10 14:40:00,66.7,57.8,30.15,NNW,344,9.8,16.8,73,0.00,,,0.00,VWS V14.01,2013-08-10 18:40:00,
2013-08-10 14:45:00,66.7,57.8,30.16,NNE,20,16.8,16.8,73,0.00,,,0.00,VWS V14.01,2013-08-10 18:45:00,
2013-08-10 14:50:00,66.3,57.0,30.15,NNW,328,9.8,16.8,72,0.00,,,0.00,VWS V14.01,2013-08-10 18:50:00,
2013-08-10 14:55:00,66.2,57.3,30.15,NNE,15,14.0,16.8,73,0.00,,,0.00,VWS V14.01,2013-08-10 18:55:00,
2013-08-10 15:00:00,66.1,58.0,30.16,NNW,340,5.6,16.8,75,0.00,,,0.00,VWS V14.01,2013-08-10 19:00:00,
2013-08-10 15:05:00,66.3,58.5,30.16,NNE,30,7.0,16.8,76,0.00,,,0.00,VWS V14.01,2013-08-10 19:05:00,
2013-08-10 15:10:00,66.3,58.5,30.16,North,358,7.0,16.8,76,0.00,,,0.00,VWS V14.01,2013-08-10 19:10:00,
2013-08-10 15:15:00,66.4,58.2,30.16,NNE,25,9.8,16.8,75,0.00,,,0.00,VWS V14.01,2013-08-10 19:15:00,
2013-08-10 15:20:00,66.3,57.8,30.16,North,349,9.8,16.8,74,0.00,,,0.00,VWS V14.01,2013-08-10 19:20:00,
2013-08-10 15:25:00,66.2,57.7,30.16,NNW,344,12.6,16.8,74,0.00,,,0.00,VWS V14.01,2013-08-10 19:25:00,
2013-08-10 15:30:00,66.1,57.6,30.16,North,355,9.8,19.6,74,0.00,,,0.00,VWS V14.01,2013-08-10 19:30:00,
2013-08-10 15:35:00,66.0,57.9,30.16,NNW,327,9.8,19.6,75,0.00,,,0.00,VWS V14.01,2013-08-10 19:35:00,
2013-08-10 15:40:00,66.0,58.2,30.16,North,352,9.8,19.6,76,0.00,,,0.00,VWS V14.01,2013-08-10 19:40:00,
2013-08-10 15:45:00,65.9,57.4,30.16,North,349,14.0,22.4,74,0.00,,,0.00,VWS V14.01,2013-08-10 19:45:00,
2013-08-10 15:50:00,65.7,56.4,30.16,WNW,302,7.0,22.4,72,0.00,,,0.00,VWS V14.01,2013-08-10 19:50:00,
2013-08-10 15:55:00,65.9,57.0,30.16,NNW,334,12.6,22.4,73,0.00,,,0.00,VWS V14.01,2013-08-10 19:55:00,
2013-08-10 16:00:00,65.8,56.5,30.16,NNW,346,9.8,25.2,72,0.00,,,0.00,VWS V14.01,2013-08-10 20:00:00,
2013-08-10 16:05:00,65.9,57.0,30.16,NNE,26,14.0,22.4,73,0.00,,,0.00,VWS V14.01,2013-08-10 20:05:00,
2013-08-10 16:10:00,66.1,56.8,30.15,NNE,23,9.8,22.4,72,0.00,,,0.00,VWS V14.01,2013-08-10 20:10:00,
2013-08-10 16:15:00,66.6,57.7,30.15,NNW,328,9.8,22.4,73,0.00,,,0.00,VWS V14.01,2013-08-10 20:15:00,
2013-08-10 16:20:00,66.3,56.6,30.15,WNW,287,15.4,22.4,71,0.00,,,0.00,VWS V14.01,2013-08-10 20:20:00,
2013-08-10 16:25:00,66.5,57.2,30.15,West,262,12.6,22.4,72,0.00,,,0.00,VWS V14.01,2013-08-10 20:25:00,
2013-08-10 16:30:00,66.4,56.7,30.15,North,4,9.8,26.6,71,0.00,,,0.00,VWS V14.01,2013-08-10 20:30:00,
2013-08-10 16:35:00,66.4,56.7,30.15,SSW,210,12.6,26.6,71,0.00,,,0.00,VWS V14.01,2013-08-10 20:35:00,
2013-08-10 16:40:00,66.2,57.3,30.15,NNW,330,8.4,26.6,73,0.00,,,0.00,VWS V14.01,2013-08-10 20:40:00,
2013-08-10 16:45:00,66.4,57.9,30.15,WNW,294,8.4,26.6,74,0.00,,,0.00,VWS V14.01,2013-08-10 20:45:00,
2013-08-10 16:50:00,66.6,58.1,30.15,NNW,331,15.4,26.6,74,0.00,,,0.00,VWS V14.01,2013-08-10 20:50:00,
2013-08-10 16:55:00,66.6,58.1,30.15,NNW,348,11.2,26.6,74,0.00,,,0.00,VWS V14.01,2013-08-10 20:55:00,
2013-08-10 16:59:00,66.4,57.5,30.15,NNW,337,8.4,26.6,73,0.00,,,0.00,VWS V14.01,2013-08-10 20:59:00,
2013-08-10 17:00:00,65.8,56.9,30.16,North,6,12.6,25.2,73,0.00,,,0.00,VWS V14.01,2013-08-10 21:00:00,
2013-08-10 17:05:00,66.6,57.7,30.15,NNE,13,9.8,26.6,73,0.00,,,0.00,VWS V14.01,2013-08-10 21:05:00,
2013-08-10 17:09:00,66.4,57.9,30.15,North,358,7.0,26.6,74,0.00,,,0.00,VWS V14.01,2013-08-10 21:09:00,
2013-08-10 17:14:00,66.5,58.0,30.15,NNW,333,8.4,26.6,74,0.00,,,0.00,VWS V14.01,2013-08-10 21:14:00,
2013-08-10 17:19:00,66.4,57.5,30.15,North,355,4.2,26.6,73,0.00,,,0.00,VWS V14.01,2013-08-10 21:19:00,
2013-08-10 17:24:00,66.2,58.0,30.15,ENE,77,4.2,26.6,75,0.00,,,0.00,VWS V14.01,2013-08-10 21:24:00,
2013-08-10 17:29:00,66.3,57.4,30.14,NNE,23,7.0,26.6,73,0.00,,,0.00,VWS V14.01,2013-08-10 21:29:00,
2013-08-10 17:34:00,66.1,57.6,30.15,North,349,7.0,26.6,74,0.00,,,0.00,VWS V14.01,2013-08-10 21:34:00,
2013-08-10 17:39:00,65.8,56.9,30.15,NNE,16,11.2,26.6,73,0.00,,,0.00,VWS V14.01,2013-08-10 21:39:00,
2013-08-10 17:44:00,65.9,57.0,30.15,West,277,5.6,26.6,73,0.00,,,0.00,VWS V14.01,2013-08-10 21:44:00,
2013-08-10 17:49:00,65.8,56.9,30.15,North,356,8.4,26.6,73,0.00,,,0.00,VWS V14.01,2013-08-10 21:49:00,
2013-08-10 17:54:00,65.7,57.6,30.15,North,350,11.2,26.6,75,0.00,,,0.00,VWS V14.01,2013-08-10 21:54:00,
2013-08-10 17:59:00,65.9,57.0,30.14,NNW,340,7.0,26.6,73,0.00,,,0.00,VWS V14.01,2013-08-10 21:59:00,
2013-08-10 18:00:00,66.0,57.5,30.14,NNW,327,9.8,26.6,74,0.00,,,0.00,VWS V14.01,2013-08-10 22:00:00,
2013-08-10 18:04:00,65.9,56.6,30.14,NNW,337,5.6,15.4,72,0.00,,,0.00,VWS V14.01,2013-08-10 22:04:00,
2013-08-10 18:09:00,65.5,57.0,30.14,WSW,257,4.2,15.4,74,0.00,,,0.00,VWS V14.01,2013-08-10 22:09:00,
2013-08-10 18:14:00,65.6,57.5,30.14,NW,325,7.0,15.4,75,0.00,,,0.00,VWS V14.01,2013-08-10 22:14:00,
2013-08-10 18:19:00,65.6,57.5,30.14,West,278,7.0,15.4,75,0.00,,,0.00,VWS V14.01,2013-08-10 22:19:00,
2013-08-10 18:24:00,65.4,57.3,30.14,North,350,5.6,15.4,75,0.00,,,0.00,VWS V14.01,2013-08-10 22:24:00,
2013-08-10 18:29:00,65.3,57.2,30.14,NNE,32,4.2,15.4,75,0.00,,,0.00,VWS V14.01,2013-08-10 22:29:00,
2013-08-10 18:34:00,65.1,57.4,30.13,NW,312,8.4,15.4,76,0.00,,,0.00,VWS V14.01,2013-08-10 22:34:00,
2013-08-10 18:39:00,65.0,57.3,30.13,NW,306,5.6,15.4,76,0.00,,,0.00,VWS V14.01,2013-08-10 22:39:00,
2013-08-10 18:44:00,64.6,56.9,30.13,NNW,330,5.6,15.4,76,0.00,,,0.00,VWS V14.01,2013-08-10 22:44:00,
2013-08-10 18:49:00,64.5,56.8,30.13,NNE,16,11.2,15.4,76,0.00,,,0.00,VWS V14.01,2013-08-10 22:49:00,
2013-08-10 18:54:00,64.4,56.7,30.13,NNW,338,4.2,15.4,76,0.00,,,0.00,VWS V14.01,2013-08-10 22:54:00,
2013-08-10 18:59:00,64.3,57.0,30.13,NW,318,8.4,15.4,77,0.00,,,0.00,VWS V14.01,2013-08-10 22:59:00,
2013-08-10 19:00:00,66.0,57.5,30.14,NNW,327,9.8,26.6,74,0.00,,,0.00,VWS V14.01,2013-08-10 23:00:00,
2013-08-10 19:04:00,64.3,57.0,30.13,NNE,13,5.6,18.2,77,0.00,,,0.00,VWS V14.01,2013-08-10 23:04:00,
2013-08-10 19:09:00,64.2,57.2,30.13,NNW,347,5.6,18.2,78,0.00,,,0.00,VWS V14.01,2013-08-10 23:09:00,
2013-08-10 19:14:00,64.3,57.0,30.13,NNE,18,8.4,18.2,77,0.00,,,0.00,VWS V14.01,2013-08-10 23:14:00,
2013-08-10 19:19:00,64.4,57.0,30.13,NNE,29,8.4,18.2,77,0.00,,,0.00,VWS V14.01,2013-08-10 23:19:00,
2013-08-10 19:24:00,64.3,56.6,30.13,NW,319,8.4,18.2,76,0.00,,,0.00,VWS V14.01,2013-08-10 23:24:00,
2013-08-10 19:29:00,64.1,56.4,30.13,NNW,330,5.6,18.2,76,0.00,,,0.00,VWS V14.01,2013-08-10 23:29:00,
2013-08-10 19:34:00,64.2,56.8,30.13,North,358,5.6,18.2,77,0.00,,,0.00,VWS V14.01,2013-08-10 23:34:00,
2013-08-10 19:39:00,64.1,56.4,30.13,North,11,7.0,18.2,76,0.00,,,0.00,VWS V14.01,2013-08-10 23:39:00,
2013-08-10 19:44:00,64.0,56.7,30.13,NW,316,5.6,18.2,77,0.00,,,0.00,VWS V14.01,2013-08-10 23:44:00,
2013-08-10 19:49:00,64.0,56.7,30.13,NNW,337,5.6,18.2,77,0.00,,,0.00,VWS V14.01,2013-08-10 23:49:00,
2013-08-10 19:54:00,63.9,56.9,30.13,East,79,2.8,18.2,78,0.00,,,0.00,VWS V14.01,2013-08-10 23:54:00,
2013-08-10 19:59:00,63.5,56.5,30.13,NNW,332,4.2,18.2,78,0.00,,,0.00,VWS V14.01,2013-08-10 23:59:00,
2013-08-10 20:00:00,63.5,56.5,30.13,NNW,346,7.0,18.2,78,0.00,,,0.00,VWS V14.01,2013-08-11 00:00:00,
2013-08-10 20:04:00,63.4,56.4,30.13,NW,320,7.0,9.8,78,0.00,,,0.00,VWS V14.01,2013-08-11 00:04:00,
2013-08-10 20:09:00,63.0,56.4,30.13,SSE,158,1.4,12.6,79,0.00,,,0.00,VWS V14.01,2013-08-11 00:09:00,
2013-08-10 20:14:00,62.9,56.6,30.13,NNW,345,2.8,12.6,80,0.00,,,0.00,VWS V14.01,2013-08-11 00:14:00,
2013-08-10 20:19:00,62.6,56.0,30.13,NNW,345,2.8,12.6,79,0.00,,,0.00,VWS V14.01,2013-08-11 00:19:00,
2013-08-10 20:24:00,62.3,55.7,30.13,NNW,340,4.2,12.6,79,0.00,,,0.00,VWS V14.01,2013-08-11 00:24:00,
2013-08-10 20:29:00,62.0,55.8,30.13,North,356,8.4,12.6,80,0.00,,,0.00,VWS V14.01,2013-08-11 00:29:00,
2013-08-10 20:34:00,61.6,55.0,30.13,NE,46,8.4,12.6,79,0.00,,,0.00,VWS V14.01,2013-08-11 00:34:00,
2013-08-10 20:39:00,60.9,54.3,30.13,ENE,60,4.2,12.6,79,0.00,,,0.00,VWS V14.01,2013-08-11 00:39:00,
2013-08-10 20:44:00,60.3,54.5,30.13,NNW,332,2.8,12.6,81,0.00,,,0.00,VWS V14.01,2013-08-11 00:44:00,
2013-08-10 20:49:00,59.8,54.0,30.13,NNW,330,4.2,12.6,81,0.00,,,0.00,VWS V14.01,2013-08-11 00:49:00,
2013-08-10 20:54:00,59.6,54.1,30.13,NW,324,4.2,12.6,82,0.00,,,0.00,VWS V14.01,2013-08-11 00:54:00,
2013-08-10 20:59:00,59.3,54.2,30.13,NW,309,4.2,12.6,83,0.00,,,0.00,VWS V14.01,2013-08-11 00:59:00,
2013-08-10 21:00:00,63.5,56.5,30.13,NNW,346,7.0,18.2,78,0.00,,,0.00,VWS V14.01,2013-08-11 01:00:00,
2013-08-10 21:04:00,59.0,53.8,30.13,NNW,337,2.8,12.6,83,0.00,,,0.00,VWS V14.01,2013-08-11 01:04:00,
2013-08-10 21:09:00,58.8,53.7,30.13,NNW,334,2.8,12.6,83,0.00,,,0.00,VWS V14.01,2013-08-11 01:09:00,
2013-08-10 21:14:00,58.7,54.2,30.13,NW,316,1.4,12.6,85,0.00,,,0.00,VWS V14.01,2013-08-11 01:14:00,
2013-08-10 21:19:00,58.5,53.7,30.13,WNW,287,0.0,12.6,84,0.00,,,0.00,VWS V14.01,2013-08-11 01:19:00,
2013-08-10 21:24:00,58.3,53.5,30.13,West,267,0.0,12.6,84,0.00,,,0.00,VWS V14.01,2013-08-11 01:24:00,
2013-08-10 21:29:00,58.2,53.4,30.13,WSW,252,0.0,12.6,84,0.00,,,0.00,VWS V14.01,2013-08-11 01:29:00,
2013-08-10 21:34:00,57.7,52.9,30.13,WSW,252,0.0,12.6,84,0.00,,,0.00,VWS V14.01,2013-08-11 01:34:00,
2013-08-10 21:39:00,57.1,53.0,30.13,WSW,252,0.0,12.6,86,0.00,,,0.00,VWS V14.01,2013-08-11 01:39:00,
2013-08-10 21:44:00,56.7,52.9,30.13,WSW,252,0.0,12.6,87,0.00,,,0.00,VWS V14.01,2013-08-11 01:44:00,
2013-08-10 21:49:00,56.3,52.5,30.13,WSW,252,0.0,12.6,87,0.00,,,0.00,VWS V14.01,2013-08-11 01:49:00,
2013-08-10 21:54:00,56.1,52.6,30.13,WSW,253,0.0,12.6,88,0.00,,,0.00,VWS V14.01,2013-08-11 01:54:00,
2013-08-10 21:59:00,56.5,52.7,30.13,WSW,253,0.0,12.6,87,0.00,,,0.00,VWS V14.01,2013-08-11 01:59:00,
2013-08-10 22:00:00,56.4,52.6,30.13,WSW,253,0.0,12.6,87,0.00,,,0.00,VWS V14.01,2013-08-11 02:00:00,
2013-08-10 22:04:00,56.2,52.4,30.13,WSW,253,0.0,1.4,87,0.00,,,0.00,VWS V14.01,2013-08-11 02:04:00,
2013-08-10 22:09:00,55.7,52.5,30.14,WSW,253,0.0,1.4,89,0.00,,,0.00,VWS V14.01,2013-08-11 02:09:00,
2013-08-10 22:14:00,55.2,52.6,30.13,SSW,201,1.4,1.4,91,0.00,,,0.00,VWS V14.01,2013-08-11 02:14:00,
2013-08-10 22:19:00,54.7,52.1,30.13,SSW,201,0.0,1.4,91,0.00,,,0.00,VWS V14.01,2013-08-11 02:19:00,
2013-08-10 22:24:00,54.3,51.7,30.13,SSW,207,0.0,1.4,91,0.00,,,0.00,VWS V14.01,2013-08-11 02:24:00,
2013-08-10 22:29:00,54.0,51.7,30.13,SSW,207,0.0,1.4,92,0.00,,,0.00,VWS V14.01,2013-08-11 02:29:00,
2013-08-10 22:34:00,53.9,51.6,30.13,SSW,207,0.0,1.4,92,0.00,,,0.00,VWS V14.01,2013-08-11 02:34:00,
2013-08-10 22:39:00,53.7,51.4,30.13,SSW,207,0.0,1.4,92,0.00,,,0.00,VWS V14.01,2013-08-11 02:39:00,
2013-08-10 22:44:00,53.5,51.2,30.14,SSW,207,0.0,1.4,92,0.00,,,0.00,VWS V14.01,2013-08-11 02:44:00,
2013-08-10 22:49:00,53.3,51.0,30.14,SSW,208,0.0,1.4,92,0.00,,,0.00,VWS V14.01,2013-08-11 02:49:00,
2013-08-10 22:54:00,53.3,51.0,30.14,SSW,212,0.0,1.4,92,0.00,,,0.00,VWS V14.01,2013-08-11 02:54:00,
2013-08-10 22:59:00,52.7,50.5,30.13,SSW,204,1.4,2.8,92,0.00,,,0.00,VWS V14.01,2013-08-11 02:59:00,
2013-08-10 23:00:00,56.4,52.6,30.13,WSW,253,0.0,12.6,87,0.00,,,0.00,VWS V14.01,2013-08-11 03:00:00,
2013-08-10 23:04:00,52.1,49.8,30.13,SSW,201,1.4,2.8,92,0.00,,,0.00,VWS V14.01,2013-08-11 03:04:00,
2013-08-10 23:09:00,51.9,50.2,30.13,SSW,201,0.0,2.8,94,0.00,,,0.00,VWS V14.01,2013-08-11 03:09:00,
2013-08-10 23:14:00,51.9,50.2,30.13,SSW,201,0.0,2.8,94,0.00,,,0.00,VWS V14.01,2013-08-11 03:14:00,
2013-08-10 23:19:00,52.0,50.3,30.13,SSW,201,1.4,2.8,94,0.00,,,0.00,VWS V14.01,2013-08-11 03:19:00,
2013-08-10 23:24:00,51.7,49.8,30.13,SSW,201,1.4,2.8,93,0.00,,,0.00,VWS V14.01,2013-08-11 03:24:00,
2013-08-10 23:29:00,51.4,49.7,30.13,SSW,201,0.0,2.8,94,0.00,,,0.00,VWS V14.01,2013-08-11 03:29:00,
2013-08-10 23:34:00,51.4,50.0,30.13,SSW,198,1.4,2.8,95,0.00,,,0.00,VWS V14.01,2013-08-11 03:34:00,
2013-08-10 23:39:00,51.3,49.6,30.12,SSW,208,1.4,2.8,94,0.00,,,0.00,VWS V14.01,2013-08-11 03:39:00,
2013-08-10 23:44:00,51.2,49.5,30.12,SSW,208,0.0,2.8,94,0.00,,,0.00,VWS V14.01,2013-08-11 03:44:00,
2013-08-10 23:49:00,51.1,49.4,30.12,SSW,208,0.0,2.8,94,0.00,,,0.00,VWS V14.01,2013-08-11 03:49:00,
2013-08-10 23:54:00,51.0,49.3,30.12,SW,219,1.4,2.8,94,0.00,,,0.00,VWS V14.01,2013-08-11 03:54:00,
2013-08-10 23:59:00,50.9,49.2,30.12,SW,226,0.0,2.8,94,0.00,,,0.00,VWS V14.01,2013-08-11 03:59:00,